SCP
0 0 0 0 0 0 0 0 0 0 0 0 0 0 0 0 0 0 0 0 0 0 0 0 0 0 0 0 0 0 0 0 0 0 0 0 0 0 0 0 0 0 0 0 0
0 0 0 0 0 0 0 0 0 0 0 0 0 0 0 0 -0 0 0 0 0 0 0 0 0 0 0 0 0 0 0 0 0 0 0 0 0 0 0 0 0 0 0 0 0
0 0 0 0 0 0 0 0 0 0 0 0 0 0 0 0 -0 -0 -0 0 0 0 0 0 0 0 0 0 0 0 0 0 0 0 0 0 -0 0 0 0 0 0 0 0 0
0 0 0 0 0 0 0 0 0 0 0 0 0 0 0 0 0 0 0 0 1 0 0 0 0 0 0 0 0 0 0 0 0 0 0 0 0 0 0 0 0 0 0 0 0
0 0 0 0 0 0 0 0 0 0 0 0 0 0 0 0 0 0 0 0 0 0 0 0 0 0 0 0 0 0 0 0 0 0 0 0 0 0 0 0 0 0 0 0 0
0 0 0 0 0 0 0 0 0 0 0 0 0 0 0 0 0 0 0 0 0 0 0 0 0 0 0 0 0 0 0 0 0 0 0 0 0 0 0 0 0 0 0 0 0
0 0 0 0 0 0 0 0 0 0 0 0 0 0 0 0 0 0 0 0 0 0 0 0 0 0 0 0 0 0 0 0 0 0 0 0 0 -0 -0 -0 0 0 0 0 -0
0 0 0 0 0 0 0 0 0 0 0 0 0 0 0 0 0 0 0 0 0 0 0 0 0 0 0 0 0 0 0 0 0 0 0 0 0 0 0 -0 0 0 0 0 0
0 0 0 0 0 0 0 0 0 0 0 0 0 0 0 0 0 0 0 0 0 0 0 0 0 0 0 0 0 0 0 0 0 0 0 0 -0 -0 -0 -0 -0 -0 0 0 -0
0 0 0 0 0 0 0 0 0 0 0 0 0 0 0 0 0 0 0 0 0 0 0 0 0 0 0 0 0 0 0 0 -0 0 0 0 -0 -0 -0 0 0 -0 -0 0 0
0 0 0 0 0 0 0 -0 0 0 0 0 0 0 0 0 0 0 0 0 0 0 0 0 0 0 0 0 0 0 0 0 -0 0 0 0 -0 0 0 -0 0 0 -0 0 0
0 0 0 0 0 0 0 0 -0 0 0 0 0 0 0 0 0 0 0 0 0 0 0 0 0 0 0 0 0 0 0 -0 -0 0 -0 0 0 0 0 -0 0 0 -0 -0 0
0 0 0 0 0 0 0 0 0 0 -0 -0 0 0 0 0 0 0 0 0 0 0 0 0 0 0 0 0 0 0 0 -0 -0 0 -0 0 -0 0 0 -0 0 0 0 0 0
0 0 0 0 0 0 0 0 0 0 -0 -0 -0 -0 0 0 0 0 0 0 0 0 0 0 0 0 0 0 0 0 0 0 0 0 0 0 -0 0 0 0 0 -0 0 0 0
0 0 0 0 0 0 0 0 0 0 0 0 0 0 0 0 0 0 0 0 0 0 0 0 0 0 0 0 0 0 0 0 0 0 0 0 0 -0 -0 0 0 -0 -0 0 0
0 0 0 0 0 0 0 0 0 0 0 0 0 0 0 0 0 0 0 0 0 0 0 0 0 0 0 0 0 0 0 0 0 0 -0 -0 0 -0 -0 -0 0 0 0 -0 0
0 0 0 0 0 0 0 0 0 0 0 0 0 0 0 0 0 0 0 0 0 0 0 0 0 0 0 0 0 0 0 0 0 0 0 -0 0 0 0 0 0 0 0 -0 0
0 0 0 0 0 0 0 0 0 0 0 0 -0 0 0 0 0 0 0 0 0 0 0 0 0 0 0 0 0 0 0 0 0 0 0 0 0 -0 -0 0 0 0 -0 -0 0
0 0 0 0 0 0 0 0 0 0 0 0 -0 -0 0 0 0 0 0 0 0 0 0 0 0 0 0 0 0 0 0 0 0 0 0 0 0 -0 0 0 0 -0 -0 -0 0
0 0 0 0 0 0 0 0 0 0 0 0 -0 -0 0 0 0 0 0 0 0 0 0 0 0 0 0 0 0 0 0 0 0 0 0 0 0 -0 0 0 0 -0 -0 -0 0
0 0 0 0 0 0 0 0 0 0 0 0 0 -0 -0 -0 -0 0 0 0 0 0 0 0 0 0 0 0 0 0 0 0 0 0 0 0 0 0 0 0 -0 -0 -0 -0 0
0 0 0 0 0 0 -0 0 -0 0 0 0 0 -0 -0 -0 -0 -0 0 0 0 0 0 0 0 0 0 0 0 0 0 0 0 0 0 0 -0 0 0 0 -0 -0 -0 -0 0
0 0 0 -0 0 0 0 0 -0 -0 -0 0 0 0 0 0 -0 -0 0 0 0 0 0 0 0 0 0 0 0 0 0 -0 0 0 0 0 0 0 0 0 0 -0 -0 -0 0
0 0 0 0 -0 -0 -0 -0 0 0 0 0 -0 -0 -0 0 0 -0 -0 -0 0 0 0 0 0 0 0 0 0 0 0 0 0 0 0 0 -0 0 0 0 -0 -0 -0 -0 -0
0 0 0 0 0 0 -0 -0 0 -0 -0 0 0 -0 0 -0 0 -0 -0 -0 0 0 0 0 0 0 -0 0 0 0 0 0 0 0 0 -0 0 0 0 0 0 0 -0 -0 -0
0 0 0 -0 -0 -0 0 -0 -0 -0 0 0 0 0 0 -0 -0 0 0 -0 -0 0 0 0 0 0 -0 -0 0 0 0 0 0 0 -0 0 0 0 0 0 0 -0 -0 -0 -0
0 0 0 0 -0 -0 -0 -0 -0 -0 -0 0 -0 -0 0 0 -0 -0 -0 -0 -0 -0 0 0 0 0 0 0 -0 0 0 0 0 0 0 0 0 0 0 0 -0 -0 -0 -0 -0
Wind_Speed_500mb
47 46 47 50 53 54 50 51 50 50 50 48 49 51 49 52 50 46 56 48 38 35 41 36 35 36 29 24 23 16 4 10 13 11 17 13 7 45 34 26 12 29 38 35 23
44 47 49 49 50 52 56 52 51 52 55 53 52 51 49 52 59 64 56 46 45 48 44 44 32 37 24 16 18 16 9 18 20 11 14 34 8 42 23 39 30 25 32 37 36
43 40 41 44 48 51 53 57 56 52 53 55 53 51 47 45 55 69 46 44 43 48 62 47 39 34 30 22 22 18 22 45 26 41 33 32 56 48 30 20 48 36 38 35 50
41 46 47 46 46 47 48 53 55 55 55 53 52 51 46 37 18 7 30 31 31 29 51 56 40 21 14 17 48 10 34 52 55 62 34 26 46 45 57 63 84 60 33 45 59
38 39 39 41 45 46 48 49 50 53 55 53 51 51 42 33 54 19 39 32 17 10 35 55 47 40 17 13 11 15 26 50 54 57 61 61 41 47 62 84 83 57 41 52 62
44 41 42 42 42 41 42 45 50 51 49 48 40 38 40 30 70 67 60 53 36 27 18 54 31 39 8 16 10 19 26 40 40 53 62 46 47 41 55 68 79 52 51 56 68
43 44 44 44 45 46 47 46 45 46 51 51 36 34 50 95 47 43 59 77 76 62 54 39 59 20 15 11 37 37 31 31 26 42 28 58 35 44 66 65 71 54 55 64 75
43 45 47 47 48 47 49 49 51 53 44 39 36 31 44 63 47 87 75 48 57 66 68 64 43 47 43 23 18 10 7 14 19 34 43 23 40 39 70 63 70 64 60 70 77
44 46 49 50 51 50 53 55 54 55 55 38 28 26 37 31 64 83 82 80 64 49 46 26 41 31 8 11 9 7 28 34 39 28 12 13 37 23 50 48 55 68 62 71 83
51 48 47 49 53 52 55 56 48 30 23 15 23 10 45 35 30 52 58 69 58 36 47 37 23 12 9 10 30 25 16 15 31 5 18 30 33 35 54 47 51 61 72 71 80
48 51 55 52 48 48 55 54 17 3 13 20 17 30 5 31 25 17 20 38 50 32 22 33 16 37 52 42 25 21 11 19 33 3 15 14 22 23 37 35 39 57 56 67 68
49 48 48 51 55 44 44 20 14 23 29 46 60 72 89 69 26 18 32 25 27 35 19 12 60 42 32 30 29 19 22 31 38 12 13 17 28 28 25 22 42 56 58 55 54
50 49 49 47 50 48 29 22 20 41 14 29 58 49 78 70 38 35 35 26 13 27 51 59 42 34 40 32 32 36 36 33 39 6 14 13 27 26 35 13 43 60 58 44 58
50 47 46 50 39 21 26 2 27 16 9 15 14 17 27 43 30 85 39 25 14 38 39 38 38 46 33 48 31 38 28 34 35 7 16 8 10 11 18 24 14 32 33 49 43
48 47 45 39 45 40 20 31 19 10 10 4 8 8 14 36 23 46 71 51 25 19 19 24 36 45 39 39 42 33 24 19 27 16 10 15 7 14 8 16 20 18 34 23 30
48 49 48 48 37 28 18 21 6 6 16 12 11 21 9 27 42 13 42 61 33 9 15 19 30 47 42 33 40 17 4 5 22 6 21 36 13 11 13 17 14 9 16 23 37
51 50 46 41 39 28 27 12 6 11 8 2 20 30 17 23 16 19 19 35 34 26 32 11 26 10 21 30 13 25 13 8 6 9 13 17 11 29 14 18 17 18 20 35 44
56 48 43 33 23 18 3 3 12 10 24 29 33 27 11 35 16 23 22 26 46 29 21 29 22 44 29 29 25 27 28 11 10 7 9 14 14 15 20 21 38 27 32 44 51
51 48 21 26 6 16 9 9 7 6 13 23 28 14 12 28 14 20 12 26 16 37 13 25 31 4 38 11 31 33 30 25 4 5 3 9 12 17 3 6 7 24 43 52 57
52 38 16 23 12 18 1 10 8 12 20 20 12 13 21 26 18 26 11 22 23 14 5 5 9 17 36 40 34 18 21 15 11 11 10 9 6 13 9 13 9 14 29 50 55
36 16 16 4 20 5 4 9 9 27 27 10 11 15 18 22 7 14 11 16 35 36 21 7 4 6 18 30 37 17 22 9 14 10 11 3 12 14 18 18 23 20 44 58 62
17 6 17 10 3 2 3 8 11 17 21 12 11 18 21 21 17 7 17 19 32 29 18 11 10 10 21 10 39 38 33 18 21 18 11 5 14 10 22 27 28 34 49 58 61
23 10 14 4 3 2 6 11 11 14 18 8 8 8 22 23 13 2 11 19 28 29 27 15 10 14 12 4 6 46 41 44 6 7 14 21 20 6 8 15 31 34 51 58 59
12 6 9 7 6 5 9 11 7 21 20 15 12 9 19 19 19 14 24 18 39 42 28 14 9 26 28 6 11 27 45 17 33 18 15 23 7 9 12 18 13 25 55 65 66
10 6 7 6 8 13 5 8 13 16 11 25 8 9 6 11 16 24 26 29 26 34 8 7 9 11 35 40 17 8 23 45 36 27 31 28 18 18 23 24 26 51 55 57 62
11 9 10 16 20 9 6 4 17 13 6 14 9 16 7 9 15 19 27 19 15 12 12 9 8 13 13 35 47 36 11 41 45 29 24 14 16 18 23 28 30 52 58 58 70
14 15 12 10 10 5 5 10 18 25 13 23 27 20 14 22 21 37 41 39 24 12 12 9 7 19 11 27 17 29 53 24 25 37 35 31 23 15 9 24 34 46 62 69 77
Wind_Direction_500mb
290 290 288 286 287 285 282 281 278 275 274 275 274 274 278 283 280 273 265 274 271 263 256 262 214 201 209 213 201 192 108 254 239 195 251 233 346 299 311 284 274 207 238 257 219
291 289 287 285 283 285 288 285 277 275 274 271 272 273 276 282 281 270 271 278 270 255 249 243 221 203 205 213 205 175 155 237 219 195 253 294 267 291 303 297 293 275 261 255 204
311 305 295 288 282 278 279 281 283 278 274 273 270 273 275 280 289 273 277 267 257 243 238 238 222 214 221 198 209 191 211 231 264 253 259 285 294 296 278 279 277 268 267 225 199
324 317 312 306 298 287 280 277 279 278 276 275 274 270 268 265 241 220 220 221 219 236 226 210 207 196 214 194 226 223 232 241 250 260 269 263 283 289 289 280 288 279 271 224 205
337 336 334 323 313 307 298 285 277 274 274 275 275 274 274 243 236 205 199 199 234 267 230 203 201 208 220 203 234 191 245 247 263 278 278 278 269 269 281 288 291 274 247 225 219
333 330 329 328 325 319 312 303 291 280 274 273 276 279 272 249 254 246 230 230 235 255 248 211 211 213 240 241 222 251 256 268 266 263 273 275 273 277 276 285 289 265 247 233 224
330 330 328 325 320 320 319 311 302 290 281 275 274 272 257 247 245 246 242 248 242 242 239 237 226 198 222 300 282 278 284 280 260 266 261 267 272 265 275 282 286 273 253 232 227
324 322 320 321 320 320 317 314 304 298 286 283 269 263 256 258 261 249 243 240 230 234 234 232 240 247 239 256 312 337 292 271 270 253 257 235 271 274 283 282 275 275 254 230 231
323 322 321 318 313 313 314 311 310 297 277 260 255 234 275 273 253 257 244 239 233 230 221 223 219 220 190 202 309 255 260 264 278 251 260 201 274 276 279 277 274 279 267 238 237
325 323 319 318 318 314 310 313 317 307 281 196 222 241 253 248 268 254 251 235 228 232 221 209 206 178 149 151 222 218 230 259 255 140 226 252 261 272 277 261 262 275 278 248 236
320 321 322 321 316 318 312 332 342 323 314 224 215 218 101 27 237 280 233 198 205 205 183 176 196 206 207 206 225 236 222 246 260 193 233 245 263 272 278 294 269 274 270 261 246
322 319 317 318 316 318 308 306 19 327 299 284 267 248 260 272 297 251 215 151 176 202 158 167 226 207 204 208 217 241 247 253 283 272 245 271 269 276 278 266 260 269 272 263 259
323 320 319 316 312 312 294 300 334 335 266 277 252 243 237 242 227 251 198 178 172 187 192 203 225 200 203 206 203 222 230 246 250 333 265 285 283 284 283 266 271 260 256 258 262
326 323 322 318 314 302 310 297 323 312 286 272 217 251 220 216 227 233 218 186 188 200 199 230 224 196 198 212 197 224 215 242 259 276 264 129 284 295 285 303 287 258 242 247 251
327 325 321 317 300 294 307 303 306 164 296 230 134 34 282 184 153 220 215 215 209 165 171 210 184 212 211 205 200 230 224 226 247 234 258 248 270 264 233 284 281 265 247 239 220
330 327 318 311 296 326 320 317 303 182 244 308 63 350 43 221 244 281 174 207 209 223 229 214 202 201 213 202 208 206 248 261 252 239 254 263 187 226 235 224 258 246 246 197 185
324 325 312 297 280 308 311 323 206 223 285 28 354 341 340 337 218 243 240 190 187 196 215 163 222 223 176 206 173 202 130 254 276 219 229 237 189 245 247 233 224 260 198 179 182
327 325 318 313 297 275 333 144 236 249 256 350 352 330 54 7 342 340 234 206 215 195 187 203 210 211 179 197 193 212 182 172 200 209 193 183 230 247 214 232 240 257 207 178 182
337 335 359 353 240 163 186 208 238 307 18 348 337 351 353 355 340 351 331 239 226 216 185 200 229 180 188 150 173 201 206 181 30 291 132 220 280 323 32 261 158 149 165 179 185
339 340 8 353 160 158 146 258 292 333 352 2 6 354 331 335 350 4 312 33 348 297 195 276 193 218 202 197 202 173 161 174 200 204 219 267 219 220 212 223 165 155 175 180 183
346 343 4 90 161 147 219 235 296 303 316 338 327 309 300 300 0 357 295 318 14 347 321 200 145 263 196 203 182 176 179 177 156 199 174 207 254 209 206 184 187 197 190 180 186
355 342 344 164 75 225 275 317 321 301 302 280 256 246 273 315 312 315 271 323 357 2 351 284 209 207 235 250 193 204 199 188 194 194 240 163 260 238 198 195 185 192 190 190 193
350 309 355 237 65 348 256 269 263 276 279 273 292 308 291 287 317 348 295 313 317 9 338 330 275 251 339 211 183 199 198 215 149 102 190 204 252 191 213 197 203 171 185 193 192
359 336 338 39 52 292 330 288 290 305 299 263 260 295 290 287 270 284 282 286 305 315 336 334 280 234 218 238 139 196 204 173 194 217 211 226 186 177 183 159 160 178 186 192 193
14 313 331 313 324 311 279 286 308 321 288 278 288 231 312 279 298 280 274 289 279 307 334 33 276 307 266 252 275 189 189 201 204 198 202 228 201 212 190 172 190 191 185 186 191
4 339 330 289 295 289 280 280 309 325 272 319 301 314 303 255 257 283 290 285 287 290 345 347 283 323 259 243 241 250 248 202 215 209 227 194 223 205 204 189 152 179 185 183 192
337 323 310 290 314 347 258 339 301 318 263 231 280 304 270 259 272 290 279 270 243 212 247 295 336 351 278 230 239 252 239 225 208 206 199 208 222 152 152 169 176 179 190 189 196
Wind_Speed_850mb
47 46 47 50 53 54 50 51 50 50 50 48 49 51 49 52 50 46 56 48 38 35 41 36 35 36 29 24 23 16 4 10 13 11 17 13 7 45 34 26 12 29 38 35 23
44 47 49 49 50 52 56 52 51 52 55 53 52 51 49 52 59 64 56 46 45 48 44 44 32 37 24 16 18 16 9 18 20 11 14 34 8 42 23 39 30 25 32 37 36
43 40 41 44 48 51 53 57 56 52 53 55 53 51 47 45 55 69 46 44 43 48 62 47 39 34 30 22 22 18 22 45 26 41 33 32 56 48 30 20 48 36 38 35 50
41 46 47 46 46 47 48 53 55 55 55 53 52 51 46 37 18 7 30 31 31 29 51 56 40 21 14 17 48 10 34 52 55 62 34 26 46 45 57 63 84 60 33 45 59
38 39 39 41 45 46 48 49 50 53 55 53 51 51 42 33 54 19 39 32 17 10 35 55 47 40 17 13 11 15 26 50 54 57 61 61 41 47 62 84 83 57 41 52 62
44 41 42 42 42 41 42 45 50 51 49 48 40 38 40 30 70 67 60 53 36 27 18 54 31 39 8 16 10 19 26 40 40 53 62 46 47 41 55 68 79 52 51 56 68
43 44 44 44 45 46 47 46 45 46 51 51 36 34 50 95 47 43 59 77 76 62 54 39 59 20 15 11 37 37 31 31 26 42 28 58 35 44 66 65 71 54 55 64 75
43 45 47 47 48 47 49 49 51 53 44 39 36 31 44 63 47 87 75 48 57 66 68 64 43 47 43 23 18 10 7 14 19 34 43 23 40 39 70 63 70 64 60 70 77
44 46 49 50 51 50 53 55 54 55 55 38 28 26 37 31 64 83 82 80 64 49 46 26 41 31 8 11 9 7 28 34 39 28 12 13 37 23 50 48 55 68 62 71 83
51 48 47 49 53 52 55 56 48 30 23 15 23 10 45 35 30 52 58 69 58 36 47 37 23 12 9 10 30 25 16 15 31 5 18 30 33 35 54 47 51 61 72 71 80
48 51 55 52 48 48 55 54 17 3 13 20 17 30 5 31 25 17 20 38 50 32 22 33 16 37 52 42 25 21 11 19 33 3 15 14 22 23 37 35 39 57 56 67 68
49 48 48 51 55 44 44 20 14 23 29 46 60 72 89 69 26 18 32 25 27 35 19 12 60 42 32 30 29 19 22 31 38 12 13 17 28 28 25 22 42 56 58 55 54
50 49 49 47 50 48 29 22 20 41 14 29 58 49 78 70 38 35 35 26 13 27 51 59 42 34 40 32 32 36 36 33 39 6 14 13 27 26 35 13 43 60 58 44 58
50 47 46 50 39 21 26 2 27 16 9 15 14 17 27 43 30 85 39 25 14 38 39 38 38 46 33 48 31 38 28 34 35 7 16 8 10 11 18 24 14 32 33 49 43
48 47 45 39 45 40 20 31 19 10 10 4 8 8 14 36 23 46 71 51 25 19 19 24 36 45 39 39 42 33 24 19 27 16 10 15 7 14 8 16 20 18 34 23 30
48 49 48 48 37 28 18 21 6 6 16 12 11 21 9 27 42 13 42 61 33 9 15 19 30 47 42 33 40 17 4 5 22 6 21 36 13 11 13 17 14 9 16 23 37
51 50 46 41 39 28 27 12 6 11 8 2 20 30 17 23 16 19 19 35 34 26 32 11 26 10 21 30 13 25 13 8 6 9 13 17 11 29 14 18 17 18 20 35 44
56 48 43 33 23 18 3 3 12 10 24 29 33 27 11 35 16 23 22 26 46 29 21 29 22 44 29 29 25 27 28 11 10 7 9 14 14 15 20 21 38 27 32 44 51
51 48 21 26 6 16 9 9 7 6 13 23 28 14 12 28 14 20 12 26 16 37 13 25 31 4 38 11 31 33 30 25 4 5 3 9 12 17 3 6 7 24 43 52 57
52 38 16 23 12 18 1 10 8 12 20 20 12 13 21 26 18 26 11 22 23 14 5 5 9 17 36 40 34 18 21 15 11 11 10 9 6 13 9 13 9 14 29 50 55
36 16 16 4 20 5 4 9 9 27 27 10 11 15 18 22 7 14 11 16 35 36 21 7 4 6 18 30 37 17 22 9 14 10 11 3 12 14 18 18 23 20 44 58 62
17 6 17 10 3 2 3 8 11 17 21 12 11 18 21 21 17 7 17 19 32 29 18 11 10 10 21 10 39 38 33 18 21 18 11 5 14 10 22 27 28 34 49 58 61
23 10 14 4 3 2 6 11 11 14 18 8 8 8 22 23 13 2 11 19 28 29 27 15 10 14 12 4 6 46 41 44 6 7 14 21 20 6 8 15 31 34 51 58 59
12 6 9 7 6 5 9 11 7 21 20 15 12 9 19 19 19 14 24 18 39 42 28 14 9 26 28 6 11 27 45 17 33 18 15 23 7 9 12 18 13 25 55 65 66
10 6 7 6 8 13 5 8 13 16 11 25 8 9 6 11 16 24 26 29 26 34 8 7 9 11 35 40 17 8 23 45 36 27 31 28 18 18 23 24 26 51 55 57 62
11 9 10 16 20 9 6 4 17 13 6 14 9 16 7 9 15 19 27 19 15 12 12 9 8 13 13 35 47 36 11 41 45 29 24 14 16 18 23 28 30 52 58 58 70
14 15 12 10 10 5 5 10 18 25 13 23 27 20 14 22 21 37 41 39 24 12 12 9 7 19 11 27 17 29 53 24 25 37 35 31 23 15 9 24 34 46 62 69 77
Wind_Direction_850mb
290 290 288 286 287 285 282 281 278 275 274 275 274 274 278 283 280 273 265 274 271 263 256 262 214 201 209 213 201 192 108 254 239 195 251 233 346 299 311 284 274 207 238 257 219
291 289 287 285 283 285 288 285 277 275 274 271 272 273 276 282 281 270 271 278 270 255 249 243 221 203 205 213 205 175 155 237 219 195 253 294 267 291 303 297 293 275 261 255 204
311 305 295 288 282 278 279 281 283 278 274 273 270 273 275 280 289 273 277 267 257 243 238 238 222 214 221 198 209 191 211 231 264 253 259 285 294 296 278 279 277 268 267 225 199
324 317 312 306 298 287 280 277 279 278 276 275 274 270 268 265 241 220 220 221 219 236 226 210 207 196 214 194 226 223 232 241 250 260 269 263 283 289 289 280 288 279 271 224 205
337 336 334 323 313 307 298 285 277 274 274 275 275 274 274 243 236 205 199 199 234 267 230 203 201 208 220 203 234 191 245 247 263 278 278 278 269 269 281 288 291 274 247 225 219
333 330 329 328 325 319 312 303 291 280 274 273 276 279 272 249 254 246 230 230 235 255 248 211 211 213 240 241 222 251 256 268 266 263 273 275 273 277 276 285 289 265 247 233 224
330 330 328 325 320 320 319 311 302 290 281 275 274 272 257 247 245 246 242 248 242 242 239 237 226 198 222 300 282 278 284 280 260 266 261 267 272 265 275 282 286 273 253 232 227
324 322 320 321 320 320 317 314 304 298 286 283 269 263 256 258 261 249 243 240 230 234 234 232 240 247 239 256 312 337 292 271 270 253 257 235 271 274 283 282 275 275 254 230 231
323 322 321 318 313 313 314 311 310 297 277 260 255 234 275 273 253 257 244 239 233 230 221 223 219 220 190 202 309 255 260 264 278 251 260 201 274 276 279 277 274 279 267 238 237
325 323 319 318 318 314 310 313 317 307 281 196 222 241 253 248 268 254 251 235 228 232 221 209 206 178 149 151 222 218 230 259 255 140 226 252 261 272 277 261 262 275 278 248 236
320 321 322 321 316 318 312 332 342 323 314 224 215 218 101 27 237 280 233 198 205 205 183 176 196 206 207 206 225 236 222 246 260 193 233 245 263 272 278 294 269 274 270 261 246
322 319 317 318 316 318 308 306 19 327 299 284 267 248 260 272 297 251 215 151 176 202 158 167 226 207 204 208 217 241 247 253 283 272 245 271 269 276 278 266 260 269 272 263 259
323 320 319 316 312 312 294 300 334 335 266 277 252 243 237 242 227 251 198 178 172 187 192 203 225 200 203 206 203 222 230 246 250 333 265 285 283 284 283 266 271 260 256 258 262
326 323 322 318 314 302 310 297 323 312 286 272 217 251 220 216 227 233 218 186 188 200 199 230 224 196 198 212 197 224 215 242 259 276 264 129 284 295 285 303 287 258 242 247 251
327 325 321 317 300 294 307 303 306 164 296 230 134 34 282 184 153 220 215 215 209 165 171 210 184 212 211 205 200 230 224 226 247 234 258 248 270 264 233 284 281 265 247 239 220
330 327 318 311 296 326 320 317 303 182 244 308 63 350 43 221 244 281 174 207 209 223 229 214 202 201 213 202 208 206 248 261 252 239 254 263 187 226 235 224 258 246 246 197 185
324 325 312 297 280 308 311 323 206 223 285 28 354 341 340 337 218 243 240 190 187 196 215 163 222 223 176 206 173 202 130 254 276 219 229 237 189 245 247 233 224 260 198 179 182
327 325 318 313 297 275 333 144 236 249 256 350 352 330 54 7 342 340 234 206 215 195 187 203 210 211 179 197 193 212 182 172 200 209 193 183 230 247 214 232 240 257 207 178 182
337 335 359 353 240 163 186 208 238 307 18 348 337 351 353 355 340 351 331 239 226 216 185 200 229 180 188 150 173 201 206 181 30 291 132 220 280 323 32 261 158 149 165 179 185
339 340 8 353 160 158 146 258 292 333 352 2 6 354 331 335 350 4 312 33 348 297 195 276 193 218 202 197 202 173 161 174 200 204 219 267 219 220 212 223 165 155 175 180 183
346 343 4 90 161 147 219 235 296 303 316 338 327 309 300 300 0 357 295 318 14 347 321 200 145 263 196 203 182 176 179 177 156 199 174 207 254 209 206 184 187 197 190 180 186
355 342 344 164 75 225 275 317 321 301 302 280 256 246 273 315 312 315 271 323 357 2 351 284 209 207 235 250 193 204 199 188 194 194 240 163 260 238 198 195 185 192 190 190 193
350 309 355 237 65 348 256 269 263 276 279 273 292 308 291 287 317 348 295 313 317 9 338 330 275 251 339 211 183 199 198 215 149 102 190 204 252 191 213 197 203 171 185 193 192
359 336 338 39 52 292 330 288 290 305 299 263 260 295 290 287 270 284 282 286 305 315 336 334 280 234 218 238 139 196 204 173 194 217 211 226 186 177 183 159 160 178 186 192 193
14 313 331 313 324 311 279 286 308 321 288 278 288 231 312 279 298 280 274 289 279 307 334 33 276 307 266 252 275 189 189 201 204 198 202 228 201 212 190 172 190 191 185 186 191
4 339 330 289 295 289 280 280 309 325 272 319 301 314 303 255 257 283 290 285 287 290 345 347 283 323 259 243 241 250 248 202 215 209 227 194 223 205 204 189 152 179 185 183 192
337 323 310 290 314 347 258 339 301 318 263 231 280 304 270 259 272 290 279 270 243 212 247 295 336 351 278 230 239 252 239 225 208 206 199 208 222 152 152 169 176 179 190 189 196